User: anonymous   Login
Location: Cosy Dell
(34.2789°N, 117.4537°W)
Time: 22:09:23
(UTC+00:00)
Language:

CZ-3A R/B - Orbit

View from above orbital plane
View from above orbital plane
View from above satellite
View from above satellite

Ground track
Ground track

The orbit data is extracted from the following two-line orbital elements,

1 37235U 10064B   20270.32355005  .00995756 -67423-6  50520-3 0  9990
2 37235  24.1817  65.6651 3915437 346.9857   5.2767  7.83707702123079
Epoch (UTC): 26 September 2020 07:45:54
Eccentricity: 0.3915437
inclination: 24.1817°
perigee height: 136 km
apogee height: 8520 km
right ascension of ascending node: 65.6651°
argument of perigee: 346.9857°
revolutions per day: 7.83707702
mean anomaly at epoch: 5.2767°
orbit number at epoch: 12307

The dashed part of the orbit path shows where the satellite is in the earth's shadow,  

DLR